This is the latest recevied weather packets stored in our database for station/object BRIVER. If no packets are shown the sender has not sent any weather packets the latest 1 day(s).
| Time | Temp. | Humidity | Pressure | Rain* | Wind** | Luminosity | Snow |
|---|---|---|---|---|---|---|---|
| 1778037329 | 10.56° C | 91% | 1014 hPa | 0 mm | 4.92 m/s, 197° | - | - |
| 1778037029 | 11.11° C | 90% | 1013.9 hPa | 0 mm | 4.92 m/s, 198° | - | - |
| 1778036850 | 11.11° C | 90% | 1013.9 hPa | 0 mm | 4.47 m/s, 204° | - | - |
| 1778036729 | 11.11° C | 90% | 1013.9 hPa | 0 mm | 4.47 m/s, 190° | - | - |
| 1778036429 | 11.11° C | 89% | 1013.8 hPa | 0 mm | 4.92 m/s, 199° | - | - |
| 1778036310 | 11.11° C | 89% | 1013.9 hPa | 0 mm | 4.92 m/s, 200° | - | - |
| 1778036129 | 11.11° C | 89% | 1013.9 hPa | 0 mm | 5.36 m/s, 198° | - | - |
| 1778035829 | 11.11° C | 89% | 1013.9 hPa | 0 mm | 5.36 m/s, 200° | - | - |
| 1778035770 | 11.67° C | 89% | 1013.9 hPa | 0 mm | 5.36 m/s, 206° | - | - |
| 1778035529 | 11.67° C | 88% | 1013.8 hPa | 0 mm | 5.36 m/s, 207° | - | - |
| 1778035229 | 11.67° C | 89% | 1013.8 hPa | 0 mm | 5.36 m/s, 204° | - | - |
| 1778034929 | 11.67° C | 88% | 1013.7 hPa | 0 mm | 5.36 m/s, 208° | - | - |
| 1778034690 | 11.67° C | 88% | 1013.7 hPa | 0 mm | 5.36 m/s, 206° | - | - |
| 1778034635 | 11.67° C | 88% | 1013.7 hPa | 0 mm | 5.36 m/s, 195° | - | - |
| 1778034329 | 11.67° C | 87% | 1013.6 hPa | 0 mm | 5.36 m/s, 200° | - | - |
| 1778034151 | 12.22° C | 87% | 1013.6 hPa | 0 mm | 5.36 m/s, 202° | - | - |
| 1778034029 | 11.67° C | 87% | 1013.6 hPa | 0 mm | 5.81 m/s, 217° | - | - |
| 1778033729 | 12.22° C | 87% | 1013.7 hPa | 0 mm | 5.36 m/s, 194° | - | - |
| 1778033611 | 12.22° C | 87% | 1013.6 hPa | 0 mm | 5.36 m/s, 207° | - | - |
| 1778033429 | 12.22° C | 87% | 1013.7 hPa | 0 mm | 5.36 m/s, 207° | - | - |
| 1778033129 | 12.22° C | 86% | 1013.7 hPa | 0 mm | 5.36 m/s, 219° | - | - |
| 1778033070 | 12.22° C | 86% | 1013.6 hPa | 0 mm | 5.36 m/s, 205° | - | - |
| 1778032829 | 12.22° C | 86% | 1013.6 hPa | 0 mm | 5.36 m/s, 204° | - | - |
| 1778032529 | 12.22° C | 86% | 1013.5 hPa | 0 mm | 5.81 m/s, 211° | - | - |
| 1778032229 | 12.22° C | 86% | 1013.6 hPa | 0 mm | 6.26 m/s, 207° | - | - |
* Rain latest hour (hover to see other rain measurements)
** Current wind speed in m/s (hover to see current wind gust speed)